| time (UTC) | temp C | wind direction | speed KPH | gust KPH | rain 1hr cm | rain 24hr cm | rain mn cm | humidity % | barometer mb |
| 20260507070016 | 8 | 32 | 3.2 | 6.4 | 0.00 | 0.00 | 0.00 | 79 | 1012.7 |
| 20260507065015 | 8 | 27 | 3.2 | 4.8 | 0.00 | 0.00 | 0.00 | 79 | 1012.6 |
| 20260507064013 | 8 | 28 | 3.2 | 6.4 | 0.00 | 0.00 | 0.00 | 79 | 1012.6 |
| 20260507063011 | 8 | 25 | 3.2 | 4.8 | 0.00 | 0.00 | 0.00 | 79 | 1012.8 |
| 20260507062009 | 8 | 32 | 3.2 | 4.8 | 0.00 | 0.00 | 0.00 | 79 | 1012.7 |
| 20260507061006 | 8 | 25 | 3.2 | 6.4 | 0.00 | 0.00 | 0.00 | 79 | 1012.8 |
| 20260507060004 | 8 | 29 | 3.2 | 4.8 | 0.00 | 0.00 | 0.00 | 79 | 1012.4 |
| 20260507055003 | 8 | 36 | 3.2 | 6.4 | 0.00 | 0.00 | 0.00 | 79 | 1012.2 |
| 20260507053459 | 8 | 23 | 3.2 | 4.8 | 0.00 | 0.00 | 0.00 | 78 | 1012.4 |
| 20260507052458 | 8 | 23 | 3.2 | 4.8 | 0.00 | 0.00 | 0.00 | 78 | 1012.4 |
| 20260507051455 | 8 | 28 | 3.2 | 3.2 | 0.00 | 0.00 | 0.00 | 78 | 1012.2 |
| 20260507050453 | 8 | 26 | 3.2 | 4.8 | 0.00 | 0.00 | 0.00 | 78 | 1012.1 |
| 20260507045532 | 8 | 27 | 3.2 | 4.8 | 0.00 | 0.00 | 0.00 | 78 | 1012.2 |
| 20260507044449 | 8 | 30 | 1.6 | 3.2 | 0.00 | 0.00 | 0.00 | 78 | 1012.2 |
| 20260507043448 | 8 | 19 | 1.6 | 3.2 | 0.00 | 0.00 | 0.00 | 77 | 1012.4 |
| 20260507042445 | 8 | 24 | 1.6 | 4.8 | 0.00 | 0.00 | 0.00 | 77 | 1012.4 |
| 20260507041444 | 8 | 21 | 1.6 | 3.2 | 0.00 | 0.00 | 0.00 | 77 | 1012.4 |
| 20260507040441 | 8 | 19 | 1.6 | 3.2 | 0.00 | 0.00 | 0.00 | 77 | 1012.2 |
| 20260507035440 | 8 | 23 | 1.6 | 3.2 | 0.00 | 0.00 | 0.00 | 77 | 1012.4 |
| 20260507034437 | 9 | 20 | 1.6 | 3.2 | 0.00 | 0.00 | 0.00 | 77 | 1012.4 |
| 20260507033436 | 9 | 17 | 1.6 | 3.2 | 0.00 | 0.00 | 0.00 | 77 | 1012.1 |
| 20260507032454 | 9 | 20 | 1.6 | 3.2 | 0.00 | 0.00 | 0.00 | 77 | 1012.2 |
| 20260507031432 | 9 | 20 | 3.2 | 3.2 | 0.00 | 0.00 | 0.00 | 77 | 1012.1 |
| 20260507030430 | 9 | 20 | 3.2 | 3.2 | 0.00 | 0.00 | 0.00 | 77 | 1012.2 |
| 20260507025448 | 9 | 18 | 3.2 | 3.2 | 0.00 | 0.00 | 0.00 | 77 | 1012.1 |
| 20260507024426 | 9 | 22 | 1.6 | 3.2 | 0.00 | 0.00 | 0.00 | 77 | 1012.2 |
| 20260507023424 | 9 | 20 | 3.2 | 4.8 | 0.00 | 0.00 | 0.00 | 77 | 1012.2 |
| 20260507022422 | 9 | 20 | 1.6 | 4.8 | 0.00 | 0.00 | 0.00 | 77 | 1012.5 |
| 20260507021419 | 10 | 26 | 3.2 | 3.2 | 0.00 | 0.00 | 0.00 | 76 | 1012.6 |
| 20260507020417 | 10 | 25 | 3.2 | 4.8 | 0.00 | 0.00 | 0.00 | 76 | 1012.4 |
| 20260507015416 | 10 | 23 | 1.6 | 4.8 | 0.00 | 0.00 | 0.00 | 76 | 1012.5 |
| 20260507014434 | 10 | 23 | 1.6 | 3.2 | 0.00 | 0.00 | 0.00 | 76 | 1012.7 |
| 20260507013431 | 10 | 17 | 1.6 | 3.2 | 0.00 | 0.00 | 0.00 | 76 | 1012.6 |
| 20260507012410 | 10 | 17 | 1.6 | 3.2 | 0.00 | 0.00 | 0.00 | 76 | 1012.7 |
| 20260507011408 | 10 | 18 | 1.6 | 3.2 | 0.00 | 0.00 | 0.00 | 76 | 1012.8 |
| 20260507010406 | 10 | 6 | 1.6 | 3.2 | 0.00 | 0.00 | 0.00 | 75 | 1012.8 |
| 20260507005403 | 10 | 21 | 1.6 | 6.4 | 0.00 | 0.00 | 0.00 | 75 | 1012.9 |
| 20260507004422 | 10 | 18 | 3.2 | 4.8 | 0.00 | 0.00 | 0.00 | 75 | 1012.9 |
| 20260507003359 | 10 | 14 | 1.6 | 3.2 | 0.00 | 0.00 | 0.00 | 75 | 1013.0 |
| 20260507002418 | 11 | 26 | 3.2 | 6.4 | 0.00 | 0.00 | 0.00 | 75 | 1013.0 |
| 20260507001355 | 11 | 22 | 3.2 | 6.4 | 0.00 | 0.00 | 0.00 | 74 | 1013.1 |
| 20260507000354 | 11 | 25 | 3.2 | 6.4 | 0.00 | 0.00 | 0.00 | 74 | 1013.1 |
| 20260506235411 | 11 | 28 | 3.2 | 6.4 | 0.00 | 0.00 | 0.00 | 73 | 1013.2 |
| 20260506234410 | 11 | 28 | 3.2 | 6.4 | 0.00 | 0.00 | 0.00 | 72 | 1013.2 |
| 20260506233347 | 11 | 25 | 3.2 | 6.4 | 0.00 | 0.00 | 0.00 | 71 | 1013.1 |
| 20260506232345 | 11 | 24 | 3.2 | 4.8 | 0.00 | 0.00 | 0.00 | 70 | 1013.1 |
| 20260506231343 | 11 | 26 | 3.2 | 6.4 | 0.00 | 0.00 | 0.00 | 68 | 1013.0 |
| 20260506230341 | 12 | 27 | 3.2 | 6.4 | 0.00 | 0.00 | 0.00 | 67 | 1013.1 |
| 20260506225339 | 12 | 53 | 1.6 | 3.2 | 0.00 | 0.00 | 0.00 | 66 | 1013.2 |
| 20260506224337 | 12 | 53 | 1.6 | 3.2 | 0.00 | 0.00 | 0.00 | 66 | 1013.2 |
| 20260506223336 | 12 | 90 | 1.6 | 3.2 | 0.00 | 0.00 | 0.00 | 65 | 1013.2 |
| 20260506222413 | 12 | 45 | 1.6 | 3.2 | 0.00 | 0.00 | 0.00 | 66 | 1013.2 |
| 20260506221332 | 12 | 15 | 1.6 | 3.2 | 0.00 | 0.00 | 0.00 | 68 | 1013.2 |
| 20260506220330 | 12 | 10 | 1.6 | 3.2 | 0.00 | 0.00 | 0.00 | 67 | 1013.2 |
| 20260506215328 | 12 | 349 | 1.6 | 3.2 | 0.00 | 0.00 | 0.00 | 66 | 1013.2 |
| 20260506214346 | 12 | 348 | 1.6 | 3.2 | 0.00 | 0.00 | 0.00 | 65 | 1013.3 |
| 20260506213324 | 12 | 348 | 1.6 | 3.2 | 0.00 | 0.00 | 0.00 | 65 | 1013.2 |
| 20260506212323 | 12 | 350 | 1.6 | 3.2 | 0.00 | 0.00 | 0.00 | 65 | 1013.3 |
| 20260506211340 | 12 | 347 | 1.6 | 3.2 | 0.00 | 0.00 | 0.00 | 64 | 1013.3 |
| 20260506210338 | 12 | 353 | 1.6 | 3.2 | 0.00 | 0.00 | 0.00 | 64 | 1013.4 |
| 20260506205315 | 12 | 345 | 1.6 | 3.2 | 0.00 | 0.00 | 0.00 | 63 | 1013.2 |
| 20260506204314 | 13 | 45 | 1.6 | 3.2 | 0.00 | 0.00 | 0.00 | 62 | 1013.1 |
| 20260506203311 | 13 | 90 | 1.6 | 3.2 | 0.00 | 0.00 | 0.00 | 62 | 1013.2 |
| 20260506202309 | 13 | 90 | 1.6 | 3.2 | 0.00 | 0.00 | 0.00 | 61 | 1013.1 |
| 20260506201308 | 13 | 90 | 1.6 | 3.2 | 0.00 | 0.00 | 0.00 | 60 | 1012.9 |
| 20260506200305 | 14 | 105 | 1.6 | 3.2 | 0.00 | 0.00 | 0.00 | 59 | 1012.9 |
| 20260506195306 | 14 | 45 | 1.6 | 3.2 | 0.00 | 0.00 | 0.00 | 59 | 1012.8 |
| 20260506194302 | 15 | 48 | 1.6 | 3.2 | 0.00 | 0.00 | 0.00 | 58 | 1012.9 |
| 20260506193300 | 15 | 52 | 1.6 | 3.2 | 0.00 | 0.00 | 0.00 | 57 | 1012.8 |
| 20260506192258 | 15 | 59 | 1.6 | 3.2 | 0.00 | 0.00 | 0.00 | 55 | 1012.7 |
| 20260506191256 | 16 | 68 | 1.6 | 4.8 | 0.00 | 0.00 | 0.00 | 53 | 1012.6 |
| 20260506190253 | 16 | 152 | 3.2 | 6.4 | 0.00 | 0.00 | 0.00 | 51 | 1012.7 |
| 20260506185312 | 16 | 143 | 3.2 | 6.4 | 0.00 | 0.00 | 0.00 | 51 | 1012.6 |
| 20260506184250 | 17 | 149 | 3.2 | 6.4 | 0.00 | 0.00 | 0.00 | 49 | 1012.6 |
| 20260506183248 | 17 | 146 | 3.2 | 6.4 | 0.00 | 0.00 | 0.00 | 49 | 1012.6 |
| 20260506182245 | 17 | 120 | 1.6 | 4.8 | 0.00 | 0.00 | 0.00 | 46 | 1012.6 |
| 20260506181243 | 17 | 111 | 1.6 | 4.8 | 0.00 | 0.00 | 0.00 | 46 | 1012.6 |
| 20260506180242 | 17 | 154 | 3.2 | 4.8 | 0.00 | 0.00 | 0.00 | 46 | 1012.6 |
| 20260506175240 | 17 | 106 | 1.6 | 6.4 | 0.00 | 0.00 | 0.00 | 44 | 1012.6 |
| 20260506174238 | 17 | 146 | 1.6 | 6.4 | 0.00 | 0.00 | 0.00 | 45 | 1012.8 |
| 20260506173235 | 17 | 150 | 3.2 | 4.8 | 0.00 | 0.00 | 0.00 | 45 | 1012.7 |
| 20260506172234 | 18 | 180 | 3.2 | 6.4 | 0.00 | 0.00 | 0.00 | 45 | 1012.7 |
| 20260506171232 | 18 | 159 | 1.6 | 6.4 | 0.00 | 0.00 | 0.00 | 45 | 1012.8 |
| 20260506170229 | 18 | 184 | 3.2 | 6.4 | 0.00 | 0.00 | 0.00 | 47 | 1012.8 |
| 20260506165228 | 18 | 178 | 3.2 | 6.4 | 0.00 | 0.00 | 0.00 | 47 | 1012.8 |
| 20260506164306 | 17 | 187 | 3.2 | 4.8 | 0.00 | 0.00 | 0.00 | 47 | 1012.9 |
| 20260506163223 | 17 | 198 | 3.2 | 4.8 | 0.00 | 0.00 | 0.00 | 47 | 1013.0 |
| 20260506162221 | 17 | 234 | 3.2 | 8.0 | 0.00 | 0.00 | 0.00 | 46 | 1013.2 |
| 20260506161220 | 17 | 280 | 3.2 | 8.0 | 0.00 | 0.00 | 0.00 | 48 | 1013.2 |
| 20260506160218 | 17 | 334 | 4.8 | 6.4 | 0.00 | 0.00 | 0.00 | 48 | 1013.3 |
| 20260506155215 | 17 | 348 | 4.8 | 8.0 | 0.00 | 0.00 | 0.00 | 48 | 1013.3 |
| 20260506154234 | 17 | 351 | 4.8 | 6.4 | 0.00 | 0.00 | 0.00 | 48 | 1013.4 |
| 20260506153212 | 17 | 351 | 4.8 | 6.4 | 0.00 | 0.00 | 0.00 | 47 | 1013.4 |
| 20260506152209 | 17 | 347 | 4.8 | 8.0 | 0.00 | 0.00 | 0.00 | 48 | 1013.5 |
| 20260506151228 | 17 | 358 | 6.4 | 8.0 | 0.00 | 0.00 | 0.00 | 47 | 1013.6 |
| 20260506150225 | 17 | 352 | 4.8 | 8.0 | 0.00 | 0.00 | 0.00 | 47 | 1013.9 |
| 20260506145204 | 17 | 341 | 4.8 | 8.0 | 0.00 | 0.00 | 0.00 | 47 | 1013.9 |
| 20260506144203 | 17 | 343 | 4.8 | 8.0 | 0.00 | 0.00 | 0.00 | 49 | 1014.1 |
| 20260506143221 | 17 | 351 | 4.8 | 8.0 | 0.00 | 0.00 | 0.00 | 48 | 1014.1 |
| 20260506142157 | 17 | 354 | 4.8 | 6.4 | 0.00 | 0.00 | 0.00 | 49 | 1014.2 |
| 20260506141155 | 17 | 356 | 4.8 | 9.7 | 0.00 | 0.00 | 0.00 | 49 | 1014.3 |
| 20260506140155 | 17 | 354 | 4.8 | 8.0 | 0.00 | 0.00 | 0.00 | 49 | 1014.3 |
| 20260506135152 | 16 | 358 | 6.4 | 8.0 | 0.00 | 0.00 | 0.00 | 50 | 1014.6 |
| 20260506134150 | 16 | 339 | 4.8 | 8.0 | 0.00 | 0.00 | 0.00 | 50 | 1014.6 |
| 20260506133148 | 16 | 333 | 3.2 | 6.4 | 0.00 | 0.00 | 0.00 | 50 | 1014.6 |
| 20260506132146 | 16 | 344 | 4.8 | 6.4 | 0.00 | 0.00 | 0.00 | 52 | 1014.7 |
| 20260506131144 | 16 | 315 | 3.2 | 8.0 | 0.00 | 0.00 | 0.00 | 53 | 1014.7 |
| 20260506130202 | 15 | 333 | 4.8 | 8.0 | 0.00 | 0.00 | 0.00 | 53 | 1015.0 |
| 20260506125140 | 15 | 318 | 4.8 | 8.0 | 0.00 | 0.00 | 0.00 | 54 | 1014.8 |
| 20260506124158 | 15 | 357 | 4.8 | 6.4 | 0.00 | 0.00 | 0.00 | 54 | 1015.0 |
| 20260506123144 | 15 | 344 | 4.8 | 8.0 | 0.00 | 0.00 | 0.00 | 54 | 1015.0 |
| 20260506122134 | 14 | 348 | 4.8 | 8.0 | 0.00 | 0.00 | 0.00 | 56 | 1015.4 |
| 20260506121132 | 14 | 348 | 4.8 | 6.4 | 0.00 | 0.00 | 0.00 | 56 | 1015.4 |
| 20260506120129 | 14 | 358 | 4.8 | 8.0 | 0.00 | 0.00 | 0.00 | 56 | 1015.5 |
| 20260506115128 | 14 | 353 | 4.8 | 8.0 | 0.00 | 0.00 | 0.00 | 58 | 1015.5 |
| 20260506114125 | 13 | 315 | 3.2 | 6.4 | 0.00 | 0.00 | 0.00 | 58 | 1015.7 |
| 20260506113124 | 13 | 348 | 4.8 | 6.4 | 0.00 | 0.00 | 0.00 | 59 | 1015.8 |
| 20260506112121 | 13 | 262 | 3.2 | 9.7 | 0.00 | 0.00 | 0.00 | 60 | 1015.8 |
| 20260506111120 | 13 | 318 | 4.8 | 8.0 | 0.00 | 0.00 | 0.00 | 61 | 1015.9 |
| 20260506110118 | 12 | 340 | 3.2 | 6.4 | 0.00 | 0.00 | 0.00 | 61 | 1015.9 |
| 20260506105115 | 12 | 355 | 4.8 | 6.4 | 0.00 | 0.00 | 0.00 | 61 | 1015.9 |
| 20260506104114 | 12 | 352 | 3.2 | 6.4 | 0.00 | 0.00 | 0.00 | 62 | 1016.0 |
| 20260506103112 | 12 | 355 | 3.2 | 6.4 | 0.00 | 0.00 | 0.00 | 63 | 1016.0 |
| 20260506102129 | 12 | 352 | 3.2 | 6.4 | 0.00 | 0.00 | 0.00 | 64 | 1016.1 |
| 20260506101149 | 11 | 355 | 3.2 | 6.4 | 0.00 | 0.00 | 0.00 | 64 | 1016.1 |
| 20260506100106 | 11 | 1 | 4.8 | 6.4 | 0.00 | 0.00 | 0.00 | 65 | 1016.0 |
| 20260506095103 | 11 | 1 | 4.8 | 9.7 | 0.00 | 0.00 | 0.00 | 64 | 1016.1 |
| 20260506094121 | 11 | 1 | 4.8 | 8.0 | 0.00 | 0.00 | 0.00 | 69 | 1016.1 |
| 20260506093059 | 10 | 1 | 3.2 | 6.4 | 0.00 | 0.00 | 0.00 | 71 | 1016.2 |
| 20260506092058 | 10 | 6 | 3.2 | 9.7 | 0.00 | 0.00 | 0.00 | 71 | 1016.0 |
| 20260506091116 | 10 | 1 | 3.2 | 6.4 | 0.00 | 0.00 | 0.00 | 74 | 1016.2 |
| 20260506090053 | 9 | 347 | 3.2 | 6.4 | 0.00 | 0.00 | 0.00 | 75 | 1016.1 |
| 20260506085053 | 9 | 358 | 3.2 | 6.4 | 0.00 | 0.00 | 0.00 | 76 | 1016.1 |
| 20260506084110 | 8 | 3 | 3.2 | 6.4 | 0.00 | 0.00 | 0.00 | 77 | 1016.1 |
| 20260506083047 | 8 | 3 | 3.2 | 6.4 | 0.00 | 0.00 | 0.00 | 77 | 1016.2 |
| 20260506082045 | 8 | 1 | 3.2 | 6.4 | 0.00 | 0.00 | 0.00 | 77 | 1016.2 |
| 20260506081043 | 7 | 5 | 3.2 | 6.4 | 0.00 | 0.00 | 0.00 | 78 | 1016.3 |
| 20260506073036 | 6 | 221 | 3.2 | 4.8 | 0.00 | 0.00 | 0.00 | 80 | 1016.4 |
| 20260506072054 | 6 | 351 | 3.2 | 4.8 | 0.00 | 0.00 | 0.00 | 80 | 1016.4 |
| 20260506071032 | 6 | 341 | 3.2 | 4.8 | 0.00 | 0.00 | 0.00 | 80 | 1016.3 |